Regional Weather Roundup
Issued by NWS

Home | Current Version | Previous Version | Text Only | Print | Product List | Glossary Off
Versions: 1 2 3 4 5 6 7 8 9 10 11 12 13 14 15 16 17 18 19 20 21 22 23 24 25 26 27 28 29 30 31 32 33 34 35 36 37 38 39 40 41 42 43 44 45 46 47 48 49 50

000
ASUS45 KABQ 291410
RWRNM
WEATHER ROUNDUP FOR NEW MEXICO
NATIONAL WEATHER SERVICE ALBUQUERQUE NM
700 AM MST THU JAN 29 2015

NOTE: "FAIR" MEANS FEW OR NO CLOUDS BELOW 12,000 FEET AGL WITH NO
       SIGNIFICANT WEATHER OR OBSTRUCTIONS TO VISION.

      THIS PRODUCT IS RELEASED AS TWO VERSIONS.  ONE VERSION NEAR
      THE TOP OF THE HOUR CONTAINING PRELIMINARY DATA FROM ALBUQUERQUE
      AND OTHER STATIONS.  A FINAL VERSION WITH ADDITIONAL DATA IS
      ISSUED ABOUT 10 MINUTES AFTER THE HOUR.

NMZ501-503-504-510>518-291500-
NORTHWEST PLATEAU/NORTHCENTRAL MOUNTAINS

CITY           SKY/WX    TMP DP  RH WIND       PRES   REMARKS
FARMINGTON     CLEAR     32  27  81 E8        30.33R WCI  25
LOS ALAMOS     CLOUDY    40  27  59 SW14      30.39R WCI  32
SANTA FE       CLOUDY    38  27  64 S6        30.37R WCI  33
TAOS           CLOUDY    30  25  80 N5        30.38R WCI  25
ANGEL FIRE     FAIR      26  24  93 CALM      30.43R

$$
NMZ402-403-502-505>509-291500-
WESTCENTRAL MOUNTAINS/SOUTHWEST MOUNTAINS

CITY           SKY/WX    TMP DP  RH WIND       PRES   REMARKS
GALLUP         MOCLDY    33  29  85 CALM      30.32R
GRANTS         CLOUDY    32  30  94 CALM      30.35S
SILVER CITY    CLOUDY    41  32  70 N7        30.28R

$$
NMZ407-409-411-412-291500-
SOUTHERN DESERTS

CITY           SKY/WX    TMP DP  RH WIND       PRES   REMARKS
LORDSBURG      FAIR      36  32  87 SE5       30.23R WCI  32
DEMING         CLOUDY    41  34  76 SE3       30.24R
LAS CRUCES     CLOUDY    48  35  60 NE3       30.25R
ALAMOGORDO     MOCLDY    39  34  81 S6        30.24S WCI  35
T OR C         CLOUDY    47  33  58 N9        30.26R

$$
NMZ519>523-291500-
CENTRAL VALLEYS/CENTRAL HIGHLANDS

CITY           SKY/WX    TMP DP  RH WIND       PRES   REMARKS
ALBUQUERQUE    CLOUDY    48  28  46 E20       30.33R
DOUBLE EAGLE   MOCLDY    45  28  53 SE16G23   30.34S
MORIARTY ARPT  FAIR      35  30  82 S5        30.43R WCI  30
CLINES CORNERS CLOUDY    35  28  75 E16       30.39R WCI  25
BELEN          FAIR      38  32  78 NW3       30.33R
SOCORRO        FAIR      44  32  63 NW8       30.34R

$$
NMZ524>526-539-540-291500-
SOUTHCENTRAL MOUNTAINS

CITY           SKY/WX    TMP DP  RH WIND       PRES   REMARKS
RUIDOSO        CLOUDY    37  28  70 S8        30.41R WCI  31

$$
NMZ527>531-291500-
NORTHEAST HIGHLANDS/NORTHEAST PLAINS

CITY           SKY/WX    TMP DP  RH WIND       PRES   REMARKS
LAS VEGAS      CLOUDY    33  28  81 E7        30.44R WCI  27
RATON          MOCLDY    33  26  75 N9        30.42R WCI  25
CLAYTON        CLOUDY    40  27  59 N15       30.43R WCI  32

$$
NMZ532>537-291500-
EASTCENTRAL PLAINS

CITY           SKY/WX    TMP DP  RH WIND       PRES   REMARKS
TUCUMCARI      PTCLDY    39  32  76 NE7       30.41R WCI  34
CANNON AFB     MOCLDY    41  32  71 NE22      30.36R
CLOVIS AIRPORT MOCLDY    39  32  75 N18       30.39R WCI  30

$$
NMZ028-029-538-291500-
SOUTHEAST PLAINS

CITY           SKY/WX    TMP DP  RH WIND       PRES   REMARKS
ROSWELL        CLOUDY    47  34  60 N15       30.35R
ARTESIA        CLOUDY    46  37  71 N22       30.34R
CARLSBAD       CLOUDY    50  36  58 NW21      30.29R
HOBBS          CLEAR     45  36  70 N16       30.31R


$$


USA.gov is the U.S. government's official web portal to all federal, state and local government web resources and services.